Weather History for Anoka County, MN

Change the Weather History Date:

Friday, February 15, 2013

  Actual Average Record
Temperature  
Mean Temperature 11 °F -  
Max Temperature 17 °F 28 °F 55 °F (2007)
Min Temperature 5 °F 12 °F -9 °F (2004)
Degree Days  
Heating Degree Days 54    
Moisture  
Dew Point 2 °F    
Average Humidity 69    
Maximum Humidity 85    
Minimum Humidity 49    
Precipitation  
Precipitation 0.00 in - - ()
Sea Level Pressure  
Sea Level Pressure 30.22 in    
Wind  
Wind Speed 8 mph (WNW)    
Max Wind Speed 14 mph    
Max Gust Speed 17 mph    
Visibility 10 miles    
Events      
Averages and records for this station are not official NWS values.
T = Trace of Precipitation, MM = Missing Value Source: NWS Daily Summary

Daily Weather History Graph

Daily Weather History Graph

Search for Another Location

Airport:

Trip Planner

Search our weather history database for the weather conditions in past years. The results will help you decide how hot, cold, wet, or windy it might be!

Date:

Astronomy

Feb. 15, 2013 Rise Set
Actual Time 7:13 AM CST 5:41 PM CST
Civil Twilight 6:43 AM CST 6:11 PM CST
Nautical Twilight 6:08 AM CST 6:45 PM CST
Astronomical Twilight 5:34 AM CST 7:19 PM CST
Moon 9:32 AM CST (2/15) No Moon Set
Length of Visible Light 11h 28m
Length of Day
10h 27m
Waxing Crescent, 30% of the Moon is Illuminated
Feb 15
Waxing Crescent
Feb 17
First Quarter
Feb 25
Full
Mar 4
Last Quarter
Mar 11
New

Hourly Weather History & Observations

Time (CST) Temp. Windchill Dew Point Humidity Pressure Visibility Wind Dir Wind Speed Gust Speed Precip Events Conditions
12:14 AM 14.0 °F 6.5 °F 6.8 °F 73% 30.16 in 10.0 mi West 4.6 mph - N/A   Mostly Cloudy
12:34 AM 15.8 °F 7.2 °F 6.8 °F 68% 30.16 in 10.0 mi West 5.8 mph - N/A   Overcast
12:54 AM 14.0 °F 3.9 °F 6.8 °F 73% 30.16 in 10.0 mi West 6.9 mph - N/A   Overcast
1:14 AM 14.0 °F 3.9 °F 6.8 °F 73% 30.16 in 10.0 mi West 6.9 mph - N/A   Overcast
1:33 AM 12.2 °F 0.7 °F 5.0 °F 73% 30.16 in 10.0 mi West 8.1 mph - N/A   Overcast
1:54 AM 12.2 °F 0.7 °F 3.2 °F 67% 30.16 in 10.0 mi WNW 8.1 mph - N/A   Overcast
2:33 AM 12.2 °F -1.0 °F 3.2 °F 67% 30.17 in 10.0 mi WNW 10.4 mph - N/A   Overcast
2:54 AM 12.2 °F -1.0 °F 3.2 °F 67% 30.17 in 10.0 mi WNW 10.4 mph - N/A   Overcast
3:14 AM 10.4 °F -5.4 °F 3.2 °F 73% 30.18 in 10.0 mi WNW 13.8 mph - N/A   Mostly Cloudy
3:33 AM 10.4 °F -2.4 °F 3.2 °F 73% 30.18 in 10.0 mi WNW 9.2 mph - N/A   Mostly Cloudy
4:33 AM 10.4 °F -2.4 °F 3.2 °F 73% 30.19 in 10.0 mi WNW 9.2 mph - N/A   Mostly Cloudy
4:54 AM 8.6 °F -4.7 °F 3.2 °F 79% 30.19 in 10.0 mi WNW 9.2 mph - N/A   Scattered Clouds
5:14 AM 8.6 °F -3.7 °F 1.4 °F 73% 30.20 in 10.0 mi WNW 8.1 mph - N/A   Clear
5:34 AM 8.6 °F -3.7 °F 1.4 °F 73% 30.21 in 10.0 mi WNW 8.1 mph - N/A   Clear
5:54 AM 8.6 °F -4.7 °F 1.4 °F 73% 30.21 in 10.0 mi WNW 9.2 mph - N/A   Clear
6:14 AM 6.8 °F -6.9 °F 1.4 °F 79% 30.22 in 10.0 mi WNW 9.2 mph - N/A   Clear
6:34 AM 6.8 °F -6.9 °F 1.4 °F 79% 30.22 in 10.0 mi WNW 9.2 mph - N/A   Clear
6:54 AM 6.8 °F -5.9 °F 1.4 °F 79% 30.23 in 10.0 mi WNW 8.1 mph - N/A   Clear
7:45 AM 6.8 °F -6.9 °F 1.4 °F 79% 30.24 in 10.0 mi WNW 9.2 mph - N/A   Scattered Clouds
8:55 AM 8.6 °F -5.5 °F 1.4 °F 73% 30.27 in 10.0 mi NW 10.4 mph - N/A   Scattered Clouds
9:45 AM 10.4 °F -3.3 °F 1.4 °F 67% 30.27 in 10.0 mi NW 10.4 mph - N/A   Scattered Clouds
11:45 AM 14.0 °F 0.5 °F 1.4 °F 57% 30.28 in 10.0 mi NW 11.5 mph - N/A   Scattered Clouds
12:45 PM 15.8 °F 5.1 °F 1.4 °F 53% 30.27 in 10.0 mi NW 8.1 mph - N/A   Scattered Clouds
1:45 PM 17.6 °F 4.3 °F 1.4 °F 49% 30.26 in 10.0 mi NW 12.7 mph 17.3 mph N/A   Clear
2:50 PM 17.6 °F 4.3 °F 1.4 °F 49% 30.26 in 10.0 mi NW 12.7 mph - N/A   Clear
3:59 PM 17.6 °F 3.7 °F 3.2 °F 53% 30.26 in 10.0 mi NW 13.8 mph 17.3 mph N/A   Clear
4:45 PM 17.6 °F 6.4 °F 3.2 °F 53% 30.27 in 10.0 mi WNW 9.2 mph - N/A   Clear
5:45 PM 15.8 °F 4.2 °F 1.4 °F 53% 30.27 in 10.0 mi WNW 9.2 mph - N/A   Clear
5:50 PM 10.4 °F -3.3 °F -0.4 °F 62% 30.08 in 10.0 mi NNW 10.4 mph - N/A   Scattered Clouds
6:50 PM 15.8 °F 6.1 °F 3.2 °F 58% 30.26 in 10.0 mi West 6.9 mph - N/A   Clear
7:50 PM 12.2 °F 1.7 °F 3.2 °F 67% 30.25 in 10.0 mi West 6.9 mph - N/A   Clear
8:45 PM 12.2 °F -0.2 °F 3.2 °F 67% 30.25 in 10.0 mi West 9.2 mph - N/A   Clear
9:14 PM 10.4 °F -1.5 °F 3.2 °F 73% 30.25 in 10.0 mi West 8.1 mph - N/A   Clear
9:34 PM 10.4 °F -2.4 °F 1.4 °F 67% 30.25 in 10.0 mi West 9.2 mph - N/A   Clear
9:53 PM 10.4 °F -1.5 °F 1.4 °F 67% 30.25 in 10.0 mi West 8.1 mph - N/A   Clear
10:14 PM 8.6 °F -2.6 °F 1.4 °F 73% 30.24 in 10.0 mi West 6.9 mph - N/A   Clear
10:34 PM 6.8 °F -5.9 °F 1.4 °F 79% 30.24 in 10.0 mi West 8.1 mph - N/A   Clear
10:53 PM 6.8 °F -4.8 °F 1.4 °F 79% 30.24 in 10.0 mi West 6.9 mph - N/A   Clear
11:14 PM 6.8 °F -3.5 °F 1.4 °F 79% 30.24 in 10.0 mi West 5.8 mph - N/A   Clear
11:34 PM 5.0 °F -6.9 °F 1.4 °F 85% 30.24 in 10.0 mi West 6.9 mph - N/A   Clear
11:53 PM 5.0 °F -6.9 °F -0.4 °F 78% 30.23 in 10.0 mi WNW 6.9 mph - N/A   Clear